Theta_e
361 361 360 357 354 350 350 354 358 363 364 363 359 353 352 352 352 354 363 365 365 360 358 357 356 354 352 351 349 349 349 346 345 345 345 342 342 342 342 342 341 340 341 340 340 341 341 339 339 339 341 340 339 340 338 339 342 345 347 347 345 346 344 343 340 337 340 343 342 342 343 347 344 345 344 347 349 351 353 356 358 358 357 356 357
361 363 363 359 355 355 354 356 362 365 364 359 356 352 350 353 356 363 364 363 361 357 356 354 353 351 350 349 348 345 345 346 342 344 341 341 340 340 339 338 339 338 337 337 337 337 336 336 336 337 338 337 338 337 338 337 338 339 341 341 341 340 342 341 340 335 335 339 340 344 342 346 343 346 346 344 346 350 350 354 354 354 355 358 358
365 365 362 361 359 357 360 361 364 364 360 356 353 352 353 356 365 364 361 358 358 356 353 352 351 351 349 347 345 343 343 342 342 342 340 339 338 337 337 336 336 335 333 334 334 334 334 334 333 334 335 334 334 335 336 337 336 335 335 338 339 339 341 343 339 335 334 336 339 339 341 344 342 340 343 343 348 349 349 347 344 349 354 356 355
364 364 361 358 357 360 362 364 364 361 358 355 357 353 357 366 366 362 358 356 352 352 352 350 350 350 346 344 343 344 343 342 341 341 339 338 337 335 335 334 333 333 332 332 331 332 332 332 331 332 332 332 332 332 334 334 336 337 335 338 338 338 339 341 342 340 336 334 337 337 340 339 340 341 344 346 345 345 344 346 346 348 350 348 349
364 364 360 358 358 359 363 363 361 359 354 358 358 360 367 365 364 361 357 353 352 351 350 349 347 345 340 340 342 342 342 342 341 340 338 338 337 335 336 335 334 334 334 333 332 331 331 330 330 331 331 329 331 331 332 334 334 335 336 336 336 337 338 339 339 340 337 334 334 338 339 339 341 344 344 344 343 344 346 346 346 349 349 348 349
363 362 360 358 359 358 362 362 361 361 360 365 364 368 367 364 360 358 357 354 353 350 347 344 342 340 340 340 341 343 343 342 340 339 337 338 336 336 335 335 333 333 331 331 331 331 330 331 331 331 331 330 330 331 333 333 334 335 334 334 335 336 337 337 339 339 339 337 336 336 341 340 341 343 344 345 343 341 344 343 346 348 349 347 346
364 363 360 359 361 360 361 363 363 364 369 369 370 368 365 362 359 356 355 353 350 347 345 342 341 340 342 343 342 342 341 340 340 339 338 338 337 335 334 333 333 332 332 331 331 332 331 330 331 331 331 331 330 331 332 332 332 333 334 333 336 338 337 338 338 338 338 338 337 338 338 340 340 338 343 346 346 345 343 343 341 343 346 349 348
364 363 361 360 362 359 363 364 366 372 373 371 367 364 361 359 356 355 353 350 347 346 343 341 341 342 342 343 342 342 341 339 339 339 339 337 336 334 333 333 332 332 331 331 332 332 331 332 332 331 331 333 333 333 333 333 333 333 335 338 338 338 338 337 338 337 337 336 335 335 337 337 340 342 344 345 343 342 344 341 338 339 342 348 350
364 363 361 361 362 363 364 367 375 374 370 367 363 360 357 356 353 352 350 347 343 342 342 340 341 341 342 341 341 339 337 336 335 335 336 336 336 334 334 332 332 331 331 331 332 332 331 331 332 332 333 334 334 333 333 333 333 333 336 337 336 336 334 338 337 335 335 335 337 336 337 337 339 339 340 339 338 338 341 340 339 341 342 346 348
362 362 361 362 364 367 370 374 372 369 366 363 360 357 354 352 351 349 346 344 344 344 343 343 342 341 340 340 339 336 335 334 332 330 331 335 336 333 334 333 333 332 332 331 332 333 331 332 333 332 334 334 335 334 333 333 334 335 334 336 337 336 336 334 333 335 335 335 333 334 335 332 336 336 334 336 339 342 340 340 338 339 339 342 346
362 363 361 364 368 373 372 371 369 365 363 360 357 354 352 350 349 346 344 343 342 343 342 341 341 341 340 339 336 334 333 331 328 326 328 330 336 334 332 334 334 333 333 332 333 332 331 332 333 333 334 334 335 334 333 332 333 334 334 335 337 337 336 334 337 338 337 334 336 335 336 333 335 338 341 341 344 338 339 341 340 340 341 336 332
362 363 363 368 373 370 368 368 365 362 359 357 354 353 351 349 347 345 342 341 342 342 341 340 340 340 339 338 336 333 332 327 326 326 328 328 332 336 333 333 333 334 334 334 333 331 331 331 332 333 334 333 334 336 335 333 333 334 336 336 337 338 336 337 335 334 336 336 337 338 335 335 338 337 340 341 341 342 341 342 341 337 338 337 335
363 362 368 372 370 368 368 365 362 359 357 355 353 351 350 347 345 343 341 341 341 341 340 339 339 339 338 337 335 333 331 327 326 326 327 328 330 336 334 334 334 333 334 334 334 333 333 332 331 333 332 331 333 335 335 336 336 337 337 338 338 338 336 338 338 340 339 335 338 338 338 338 338 340 342 342 344 340 341 339 341 340 340 339 340
363 367 371 369 368 367 365 362 359 357 355 353 351 350 348 346 344 343 341 341 340 338 338 339 338 338 338 336 335 333 333 327 324 325 327 327 330 335 335 334 334 334 335 335 335 334 332 332 332 331 332 333 334 335 335 336 336 336 337 337 337 338 337 337 338 338 340 341 338 335 336 339 337 337 342 344 343 341 340 337 340 339 337 338 343
366 370 368 368 367 365 363 360 357 355 353 352 350 349 347 345 342 341 341 340 339 338 338 337 338 338 338 336 333 331 330 322 323 324 325 325 329 336 336 335 334 335 335 336 336 334 333 333 332 332 332 334 333 332 334 336 336 335 336 336 337 338 338 338 338 339 338 340 338 337 336 337 337 339 341 343 342 343 344 342 342 342 340 343 345
368 368 367 366 365 364 361 359 356 354 352 351 349 347 345 343 341 341 340 340 340 339 338 338 337 338 338 337 333 331 328 321 321 322 322 324 328 335 335 336 335 335 335 335 335 335 334 334 333 333 335 335 332 329 332 336 336 334 335 335 335 336 337 336 335 336 338 339 338 337 336 335 333 336 338 341 345 343 342 345 345 345 341 336 335
367 367 365 365 363 362 360 357 354 352 351 350 348 346 343 342 341 342 341 340 338 337 338 337 338 338 338 337 335 333 331 324 319 320 320 321 333 335 337 336 336 334 334 335 334 334 334 336 334 334 333 332 330 326 328 336 333 332 332 332 333 333 334 338 335 335 334 331 330 331 331 332 331 329 329 331 336 343 346 341 338 339 335 334 336
367 366 364 364 362 361 358 356 353 351 351 349 347 345 343 343 342 342 339 338 337 338 339 337 338 338 338 337 336 334 333 327 317 318 318 320 333 336 337 336 335 335 334 336 335 333 334 332 335 332 331 331 326 325 327 337 335 335 333 332 330 329 330 333 337 338 336 334 333 332 333 334 335 333 332 331 332 337 339 335 341 344 337 334 334
366 364 364 363 361 359 357 355 353 351 350 348 346 343 342 341 341 341 340 340 338 337 336 336 336 338 339 337 333 335 335 331 318 316 317 319 333 338 336 334 334 334 334 333 335 333 334 333 331 331 332 330 322 323 325 334 334 333 332 330 329 329 330 334 335 336 337 337 337 337 337 338 338 338 338 336 335 335 338 336 339 339 337 335 336
367 366 362 360 358 356 355 354 353 351 349 347 346 343 343 341 341 341 340 338 335 334 334 334 334 335 337 337 336 336 335 334 327 315 316 319 323 344 337 335 332 333 333 331 332 333 333 334 333 326 321 321 320 319 322 325 333 332 332 330 329 329 333 334 335 334 334 334 335 335 335 336 336 336 336 336 336 337 336 335 335 335 336 336 336
364 361 359 356 354 354 354 353 351 351 348 345 344 342 342 341 341 340 337 336 335 334 334 335 335 334 335 334 335 337 338 335 329 315 315 316 319 332 337 336 335 334 333 332 332 331 332 332 332 327 319 319 317 316 318 322 330 333 332 331 332 333 334 333 333 333 333 334 334 333 333 334 335 335 333 334 332 334 333 334 335 335 333 333 333
361 359 356 354 352 352 353 352 351 347 346 344 342 340 341 342 340 337 336 336 335 334 334 334 333 332 333 334 336 336 336 336 335 321 315 314 315 322 335 337 339 335 333 332 331 331 333 332 333 326 318 318 316 314 315 321 327 333 333 321 324 329 334 335 334 333 332 332 331 330 330 330 330 331 331 331 331 332 333 333 334 336 336 335 333
357 355 353 350 349 350 351 348 346 344 343 341 339 338 338 338 338 338 336 334 333 333 333 333 333 332 333 334 336 337 336 334 329 331 318 314 314 316 318 332 328 336 332 331 332 332 333 333 332 325 317 314 313 314 316 320 330 328 318 322 324 328 334 333 333 332 330 329 328 327 327 327 328 328 328 328 330 332 332 333 333 334 333 334 336
354 351 349 349 348 348 347 345 343 341 339 338 337 336 336 336 335 334 334 332 331 331 331 331 331 330 330 331 334 335 336 333 327 326 327 316 314 314 316 317 322 335 335 332 333 333 332 333 330 315 312 311 315 317 318 325 327 315 319 324 329 332 332 332 330 330 328 325 324 324 324 326 327 328 329 331 330 333 333 334 333 333 333 333 334
350 348 347 347 346 345 344 342 340 337 335 334 333 334 334 334 332 333 333 331 330 330 330 330 329 329 329 329 330 332 334 333 331 327 324 325 318 317 320 322 321 323 334 334 334 331 323 313 313 315 317 317 318 323 325 327 321 321 321 327 331 330 331 329 328 328 325 324 323 324 325 325 326 328 332 333 333 333 332 332 333 331 330 330 330
348 347 346 346 344 343 341 339 338 336 334 334 333 332 331 331 331 331 331 329 329 329 329 328 328 329 328 329 329 330 332 332 332 332 329 328 327 321 321 328 329 330 330 330 327 322 318 317 317 319 325 327 330 332 331 332 330 332 330 331 330 330 331 330 330 327 326 325 325 325 325 327 326 329 332 332 330 327 329 329 328 328 328 325 324
345 345 345 343 342 340 338 335 334 334 335 333 330 329 329 330 330 329 329 328 329 328 329 328 328 328 328 329 329 329 331 331 331 332 333 332 329 330 330 330 328 330 334 334 331 333 331 330 326 322 322 323 328 330 331 333 330 329 327 328 328 328 330 332 331 330 328 327 326 327 328 328 329 329 327 327 327 328 330 328 326 325 327 327 324
345 344 344 342 339 338 335 330 330 329 330 331 329 328 328 328 328 327 328 329 328 328 328 327 327 328 328 328 329 329 329 329 330 331 333 331 331 331 332 334 335 332 329 331 332 333 335 331 335 337 339 336 329 329 328 329 328 328 328 328 329 330 327 329 331 332 332 330 329 328 328 329 326 325 325 325 325 327 330 330 327 325 325 327 324
344 342 341 338 337 335 332 330 329 329 329 330 330 329 327 327 329 329 334 333 333 331 329 328 329 330 329 328 327 328 328 327 330 315 325 310 324 338 332 331 330 329 334 320 343 330 330 328 327 328 327 325 325 327 326 326 325 325 327 327 327 327 327 326 326 327 329 328 325 326 324 326 325 325 325 324 325 325 332 331 333 328 327 326 322
341 341 338 335 333 334 331 331 330 329 328 327 324 318 312 311 323 331 329 320 311 307 317 336 336 331 330 336 333 333 329 330 308 301 300 300 299 299 302 302 304 326 322 313 335 328 327 327 326 325 324 324 323 323 324 324 325 324 324 325 324 324 324 326 325 323 325 324 323 322 322 322 322 323 323 323 324 324 325 325 327 328 325 322 322
338 339 337 335 333 330 328 328 329 329 328 326 325 322 320 314 300 303 312 313 305 299 298 301 308 315 336 331 323 309 308 303 300 299 299 299 298 299 299 301 303 302 304 333 329 327 326 324 324 324 323 325 324 323 325 324 326 323 322 323 324 323 322 325 326 323 321 321 321 321 320 320 320 320 320 320 322 322 323 325 325 325 322 322 322
337 335 334 332 330 331 330 329 327 326 326 326 326 324 320 316 313 301 299 303 302 298 296 295 296 302 306 316 332 324 309 300 299 299 299 299 299 298 300 301 301 304 303 305 332 327 324 323 323 323 323 323 323 324 323 323 324 324 322 321 320 321 320 323 326 322 321 321 320 320 321 320 319 319 319 318 318 318 319 320 321 321 321 321 321
338 336 335 334 332 331 329 328 326 326 325 326 326 325 320 318 315 314 311 301 299 296 295 295 295 296 299 297 298 308 310 304 298 298 298 298 297 299 299 298 301 300 305 327 328 324 325 325 325 326 325 324 323 323 323 325 323 322 324 321 320 321 322 328 325 323 321 320 320 320 320 320 319 320 319 319 318 318 317 317 318 319 320 320 319
338 336 334 333 331 330 329 328 327 326 325 325 325 325 323 320 318 317 315 315 316 309 300 294 292 296 293 294 299 299 298 299 299 299 298 300 300 302 301 327 302 295 309 331 326 327 325 324 324 325 324 324 324 323 323 323 323 324 322 322 322 324 328 329 325 323 321 321 320 320 321 320 319 319 319 319 318 317 316 316 317 318 317 318 318
335 332 330 330 329 328 327 327 325 324 324 325 325 324 323 323 321 319 319 319 319 318 319 319 302 297 316 306 295 295 297 298 300 299 299 300 302 300 301 330 330 324 328 328 326 326 325 325 325 325 325 324 324 324 323 325 324 324 323 324 324 323 324 322 322 325 323 321 321 320 320 323 321 319 318 318 318 317 315 315 317 318 319 318 319
334 332 330 327 326 326 326 326 325 324 325 325 325 324 324 323 322 322 322 323 321 320 319 319 320 309 297 293 290 295 296 298 299 299 300 300 301 301 329 326 327 325 324 324 326 323 325 325 325 325 325 325 327 326 325 324 324 324 325 324 322 323 324 323 323 324 324 323 322 322 321 321 320 320 319 318 318 318 316 315 314 315 317 318 317
333 331 329 327 326 326 326 327 326 325 325 324 324 326 326 325 324 324 324 322 320 320 320 322 322 319 318 322 309 298 297 299 299 300 300 302 295 318 323 325 325 325 324 323 323 323 324 323 324 325 325 324 324 325 326 325 325 325 323 325 326 323 320 322 323 325 323 321 322 323 323 322 322 321 319 318 317 317 317 317 316 316 316 316 319
333 331 330 329 328 328 329 329 326 324 324 323 325 326 326 327 326 324 322 322 320 320 323 322 320 319 320 323 322 322 318 302 300 302 302 303 314 320 322 324 325 324 324 324 324 324 324 324 324 324 324 323 324 325 325 325 326 324 325 326 325 321 321 324 325 326 325 322 321 322 320 320 320 320 319 318 318 317 316 318 316 316 315 315 316
334 330 329 328 328 329 329 327 325 323 323 323 324 325 325 325 325 323 322 322 320 320 321 321 319 319 321 325 322 325 322 320 319 318 319 319 322 324 323 323 323 323 325 324 323 322 323 321 319 320 318 320 321 324 326 325 326 326 327 324 324 325 324 322 322 324 321 321 321 321 321 320 320 319 321 319 318 319 317 318 317 316 316 315 315
332 330 328 327 328 327 328 327 327 326 325 323 325 324 325 325 324 323 322 321 319 319 319 318 317 321 324 325 323 323 318 318 319 322 322 322 322 323 323 322 323 323 322 323 323 323 324 322 321 319 318 321 321 323 328 326 326 325 325 324 323 323 321 323 321 321 320 320 320 320 320 321 321 320 318 320 319 318 320 318 317 318 316 316 318
333 332 328 327 328 328 329 328 327 328 328 325 325 324 324 324 324 322 322 320 318 319 320 320 319 322 325 322 313 315 322 321 321 323 322 322 323 323 323 325 324 325 325 324 323 325 325 324 322 321 320 318 319 320 324 324 324 324 324 323 323 322 322 322 322 321 321 320 320 320 322 321 320 320 317 316 316 322 319 319 319 317 318 318 317
333 329 327 327 327 328 327 326 328 328 330 329 328 325 324 323 322 322 320 320 318 318 318 319 321 324 318 308 306 305 321 323 321 321 323 322 324 323 324 325 328 328 327 326 324 325 325 326 325 323 320 318 318 318 320 322 323 324 323 323 324 322 322 321 321 322 321 320 319 319 318 317 318 316 317 320 320 319 318 318 319 319 318 318 318
333 330 329 327 326 327 326 327 329 329 329 328 328 328 327 325 324 323 320 319 318 318 318 318 320 325 322 311 311 308 320 323 321 320 321 323 322 323 323 323 323 324 326 328 327 327 326 325 325 325 323 320 319 318 318 321 323 324 323 324 323 323 322 322 321 321 321 321 319 318 319 318 319 318 318 319 319 319 319 320 319 319 319 319 320
332 330 329 327 327 328 329 330 331 329 329 330 329 328 327 327 327 325 322 319 319 318 317 318 320 322 322 316 316 316 318 322 322 321 322 321 321 321 321 322 323 325 323 325 325 326 327 325 325 324 326 324 321 320 318 319 321 323 324 322 322 321 322 321 321 321 321 321 318 319 319 317 317 318 317 318 320 319 319 318 318 318 319 319 319
332 331 329 327 326 327 328 330 329 329 329 329 328 328 327 328 327 326 323 319 320 318 318 317 318 319 319 318 318 318 319 322 321 322 321 322 322 322 322 323 324 325 323 323 325 327 326 324 325 325 324 325 323 321 318 318 321 323 323 323 324 319 321 323 323 323 321 322 320 318 317 318 317 317 317 318 319 320 318 319 318 319 318 319 319
330 330 328 329 328 327 328 328 328 329 329 327 327 327 327 326 326 325 320 319 317 316 317 316 317 319 319 319 319 318 320 323 322 321 321 322 321 322 324 323 324 324 323 324 327 326 326 326 325 325 324 325 324 322 320 319 317 319 322 324 324 325 325 324 324 323 323 322 321 320 318 316 317 316 312 318 318 318 319 319 319 319 319 319 318
333 332 329 330 329 328 328 329 327 327 328 327 327 327 325 325 323 320 317 316 316 317 317 318 317 318 320 320 318 319 321 320 321 320 321 323 323 324 324 324 324 324 324 324 327 325 326 324 325 325 326 325 325 325 323 320 318 317 319 318 322 323 323 323 323 324 323 324 321 321 321 319 316 316 315 317 319 318 318 318 318 319 320 318 319
333 331 330 329 329 327 327 327 326 326 325 325 326 324 323 322 319 318 317 319 321 321 321 322 323 322 320 320 320 320 319 320 321 320 321 322 324 324 325 327 324 323 324 325 325 324 326 326 326 326 325 326 326 325 325 324 322 319 319 319 319 323 322 313 325 324 325 324 324 322 321 321 319 319 318 319 320 319 320 319 319 319 319 319 319
332 331 329 328 327 326 326 325 323 323 323 323 321 319 318 318 318 320 321 323 324 324 324 323 324 322 321 321 320 319 318 319 321 321 321 322 323 324 326 326 325 324 323 324 325 325 325 326 325 325 326 326 326 325 325 325 322 321 319 319 318 299 301 301 311 328 314 323 323 322 321 321 321 320 318 319 321 321 321 321 321 319 319 320 320
333 332 331 328 327 327 326 325 323 323 322 321 319 318 317 319 320 322 325 324 324 324 324 324 323 322 321 320 318 316 318 319 320 321 322 323 323 325 326 326 327 325 324 324 324 325 325 327 327 326 325 327 326 327 325 324 323 321 322 325 302 300 302 298 299 299 316 323 322 323 322 323 323 322 321 321 321 321 321 321 320 320 319 320 320
333 333 332 330 329 328 327 327 325 322 320 320 319 318 318 320 323 324 325 325 325 326 325 325 325 322 322 320 318 319 318 319 321 322 323 323 325 325 325 326 325 326 326 326 326 326 327 326 326 325 325 326 325 325 326 324 325 325 315 303 298 299 297 298 313 301 296 299 324 321 320 320 323 323 323 323 322 321 321 320 319 319 319 319 319
Wind_Speed
10 9 7 8 8 8 8 8 8 6 7 7 7 7 6 6 5 4 1 1 3 3 4 5 4 4 4 4 4 5 5 6 6 6 6 7 6 6 7 8 8 7 8 9 8 8 8 9 9 8 8 8 8 8 8 8 7 6 6 6 7 7 6 7 9 11 9 8 8 9 8 9 7 7 8 5 4 3 4 5 6 6 6 6 7
9 8 8 7 8 7 6 5 6 6 7 7 8 7 6 5 3 2 3 4 3 5 5 4 5 4 4 5 5 5 5 5 6 6 7 7 7 6 7 8 8 8 8 8 9 8 9 9 8 8 8 8 8 8 7 7 7 7 6 7 7 7 6 7 8 8 10 9 8 8 8 6 7 6 5 6 5 4 6 5 5 6 6 5 5
9 8 8 8 9 7 6 6 6 7 7 6 7 6 5 3 3 4 5 5 5 5 5 6 6 5 5 5 5 5 6 6 6 6 6 7 7 7 7 8 8 9 9 10 10 9 9 9 10 10 8 9 9 8 7 7 7 8 8 7 7 7 6 6 7 8 10 9 8 8 7 6 7 7 6 6 6 5 7 7 6 5 6 6 6
9 9 9 9 9 8 8 7 7 7 7 6 5 6 3 5 5 6 6 5 6 6 6 6 5 4 4 5 5 5 6 6 6 6 6 7 8 8 8 9 9 9 9 10 10 9 9 9 10 10 9 9 8 7 7 7 7 6 8 8 7 7 6 6 6 7 8 9 7 7 6 7 7 7 6 5 6 5 5 6 6 6 7 7 7
8 9 9 9 9 9 9 8 8 8 7 5 6 4 6 7 6 7 6 7 7 6 6 5 5 4 4 5 6 6 6 6 6 6 6 7 7 8 8 8 8 9 9 8 9 9 9 9 9 9 8 8 8 8 8 10 9 8 8 7 6 6 5 5 6 6 7 8 8 6 6 6 5 5 5 6 5 5 5 6 5 5 5 6 6
9 9 8 9 9 9 8 8 8 7 6 6 6 7 7 8 8 7 8 8 7 6 5 4 5 6 5 5 6 6 6 6 6 6 7 7 7 7 8 8 9 9 9 9 8 8 8 8 8 8 8 8 8 8 9 10 8 7 8 7 6 6 5 5 5 5 6 6 7 7 5 5 5 5 4 5 5 5 4 5 5 4 3 3 7
9 9 9 9 8 9 8 8 7 7 7 7 7 7 8 9 9 9 8 8 7 6 6 6 5 6 6 6 7 7 6 6 6 6 6 6 7 8 8 8 9 8 8 8 8 8 8 8 7 7 8 8 8 9 9 8 7 8 7 7 6 6 6 5 4 4 5 5 4 4 4 3 4 4 3 4 5 4 3 3 3 2 3 3 2
9 9 9 9 8 9 8 8 8 8 7 8 8 8 9 9 9 9 8 8 8 7 6 6 6 6 6 6 6 6 6 6 6 6 6 7 7 7 8 8 8 8 8 8 8 7 7 7 7 7 7 8 9 7 8 7 7 7 6 5 5 4 4 4 5 3 3 3 4 3 3 3 2 1 2 4 3 2 2 3 3 2 2 2 4
10 10 9 9 9 9 8 8 8 9 9 9 9 9 10 10 9 9 8 8 6 7 7 7 7 7 7 7 6 6 6 6 6 6 6 7 7 7 7 8 8 8 7 7 7 7 7 6 6 6 8 9 9 8 9 10 8 8 7 8 9 7 5 3 4 5 4 3 2 1 3 2 2 2 1 1 2 3 3 2 3 3 1 3 2
10 10 10 9 9 9 9 9 9 9 9 9 10 10 10 10 9 9 8 8 7 7 7 7 7 7 7 7 6 6 6 5 7 9 7 6 6 6 6 8 7 6 6 8 8 8 7 6 6 8 9 9 10 10 10 11 11 9 7 7 8 8 7 7 6 4 4 4 3 3 3 5 5 5 6 6 5 3 3 3 3 4 5 3 2
10 10 10 10 10 10 10 10 10 10 10 10 10 11 10 9 9 9 8 8 8 7 7 7 7 7 7 6 7 6 6 5 9 8 8 10 7 6 6 6 6 7 7 7 8 9 7 6 5 6 8 9 9 10 9 9 9 9 9 8 8 7 7 6 6 5 4 5 3 5 5 4 5 5 2 5 4 5 3 3 2 2 1 3 2
10 10 10 10 11 11 10 11 11 11 11 11 11 11 10 10 10 9 8 8 8 8 8 8 7 7 6 6 7 7 6 7 7 7 7 8 8 5 6 7 7 8 8 8 8 8 7 5 5 5 7 9 8 7 8 8 7 6 9 9 8 8 7 7 7 7 5 4 6 5 6 5 5 5 5 4 5 4 4 4 4 6 4 4 6
10 10 10 11 11 11 11 12 12 11 11 12 11 11 10 10 10 9 9 8 8 8 8 8 7 7 7 7 7 7 7 6 6 7 7 8 10 9 7 6 7 8 8 8 8 8 6 5 4 5 5 9 7 8 7 6 7 9 10 11 13 13 11 10 9 8 7 7 8 7 7 6 5 5 6 6 5 4 4 4 5 4 2 6 5
11 11 11 11 11 12 12 12 12 12 12 12 12 11 11 10 9 9 9 9 8 8 8 8 7 7 7 7 7 7 6 5 7 7 7 8 9 9 7 6 7 8 8 8 8 8 7 6 5 5 6 6 7 8 9 6 6 5 6 7 8 11 11 13 12 12 11 9 10 10 11 11 8 9 7 7 6 5 5 5 5 5 6 6 5
11 11 11 11 12 12 13 13 13 13 13 12 12 11 10 10 10 9 8 9 9 9 9 8 7 7 7 7 7 7 4 5 5 7 7 9 10 11 7 6 7 7 8 9 9 8 7 5 5 5 6 7 6 8 8 8 6 5 5 6 7 8 10 11 11 10 10 9 10 10 10 10 10 10 9 8 8 6 5 5 5 4 5 4 4
12 12 12 12 13 13 14 13 13 13 13 13 12 11 11 10 10 9 9 8 8 8 7 7 7 8 7 7 7 7 4 4 5 6 8 8 12 3 6 6 7 7 8 11 10 8 7 5 4 7 7 7 10 13 11 11 6 5 4 5 5 6 7 7 8 11 11 10 10 10 9 9 11 12 12 10 8 7 6 1 2 3 3 3 5
12 12 12 13 13 13 14 14 14 14 13 13 12 12 11 11 9 8 9 9 9 8 8 7 7 7 7 7 6 5 4 3 4 6 7 9 8 6 5 7 7 8 9 10 10 9 8 9 8 7 8 9 12 11 12 12 4 3 3 3 4 5 5 6 7 7 7 9 8 7 5 4 9 13 14 15 12 8 3 5 7 3 4 3 5
12 12 12 13 13 13 14 14 15 14 14 13 13 11 10 9 9 9 9 10 9 8 8 7 7 7 7 6 5 5 3 3 6 7 8 8 8 5 5 7 8 8 9 9 8 8 8 13 11 9 9 10 12 12 13 10 7 8 8 8 7 7 6 4 4 5 5 6 8 8 7 3 6 10 12 13 14 12 10 10 8 6 5 5 6
12 12 12 13 13 13 13 14 14 14 14 13 12 12 11 10 9 8 9 8 9 8 8 7 7 6 5 5 4 3 3 4 6 8 8 9 7 7 7 8 7 8 8 8 8 7 6 8 12 11 9 10 12 14 15 13 8 7 7 6 6 7 6 6 7 8 8 8 8 8 8 9 10 10 10 12 14 14 11 10 9 8 7 5 3
11 12 13 13 13 12 12 14 14 13 13 12 11 11 10 10 10 9 9 8 8 8 7 7 7 6 5 4 3 2 3 4 6 7 8 9 10 4 7 8 8 8 7 7 7 7 6 6 8 11 11 10 11 12 13 14 9 9 8 8 7 8 8 10 9 7 7 7 7 7 7 7 8 9 10 10 11 12 12 11 10 8 8 7 8
12 13 13 13 13 13 12 13 14 12 12 12 11 10 9 10 10 10 9 8 8 8 8 8 7 6 5 4 2 2 2 4 6 7 8 9 10 8 6 6 6 6 6 6 6 6 6 7 7 9 10 10 10 11 11 13 11 10 10 10 9 6 7 7 6 8 7 7 7 8 7 7 8 8 9 10 10 10 11 10 10 9 9 8 8
13 13 14 14 14 15 14 13 12 11 12 11 11 10 9 9 9 9 8 8 9 9 8 8 7 6 5 4 3 3 3 5 4 7 8 9 9 11 6 6 5 6 6 7 6 6 6 6 6 6 8 10 11 11 10 10 11 11 6 5 5 5 7 6 6 6 7 8 8 8 9 9 9 9 10 10 10 10 10 10 10 10 9 9 9
13 13 14 15 15 15 13 14 11 10 10 11 11 11 10 10 9 8 9 9 10 9 8 7 7 6 5 4 4 4 4 4 6 6 7 7 8 9 9 6 8 4 6 7 6 5 4 5 4 5 5 8 10 11 11 9 10 6 6 4 3 1 7 8 8 8 8 8 9 9 8 9 10 10 11 10 10 11 11 11 10 10 10 10 9
14 14 14 14 16 14 14 13 12 11 12 11 11 11 11 10 9 8 9 9 8 8 7 7 7 7 6 5 4 4 4 5 5 6 5 5 6 7 7 8 9 6 6 6 5 5 4 4 4 6 4 4 4 7 9 9 7 7 4 3 9 9 9 9 8 7 8 9 9 10 10 9 9 8 8 8 8 8 8 8 9 9 9 8 9
14 14 15 17 16 14 13 12 13 12 12 12 12 11 11 10 9 8 8 8 8 8 8 8 8 7 6 6 6 5 5 5 5 4 4 5 5 5 5 5 6 5 5 6 5 4 3 5 7 4 4 4 4 2 7 8 9 9 8 7 8 9 8 8 9 8 8 9 9 9 9 9 9 8 7 7 7 7 7 7 8 9 9 10 10
13 15 16 16 14 14 13 12 12 12 12 10 10 10 11 10 9 8 8 8 8 8 8 8 8 7 6 6 6 6 6 6 5 5 5 4 4 4 4 5 8 10 8 6 6 2 3 7 7 5 1 5 5 6 6 5 2 7 9 10 10 9 8 8 8 8 8 8 9 9 9 8 8 8 8 8 7 8 7 8 8 8 8 8 9
14 16 15 13 13 13 14 11 11 9 9 8 9 10 10 10 9 9 8 8 8 8 8 8 7 7 7 7 6 6 6 5 5 5 4 4 5 6 5 4 5 6 5 4 5 4 2 1 3 4 3 4 3 1 6 3 5 7 8 9 9 8 8 8 7 7 8 8 8 8 7 7 7 7 7 8 8 8 8 7 7 7 7 7 8
15 14 12 9 10 11 11 14 13 11 10 9 8 9 11 11 11 9 8 8 8 8 7 7 7 7 7 7 7 6 6 5 6 5 4 2 3 4 4 2 2 2 4 4 4 2 2 4 5 4 3 4 1 5 5 6 6 6 6 6 6 6 7 8 8 7 7 7 7 6 6 6 7 8 8 8 8 8 7 7 7 7 7 6 7
13 12 9 9 8 7 7 7 8 9 9 8 2 2 9 13 11 9 5 4 4 6 7 6 6 6 7 7 7 6 5 6 4 6 4 5 4 3 3 2 3 4 5 6 2 3 2 2 2 1 1 1 2 3 4 4 6 6 7 6 6 6 6 6 7 7 6 6 6 6 6 6 6 6 7 7 7 7 6 6 6 5 6 7 8
13 11 9 8 10 10 9 7 6 7 7 8 6 6 14 15 9 8 7 8 10 10 6 3 2 5 6 4 4 2 4 6 6 6 4 4 4 3 4 6 7 6 7 8 6 2 2 2 2 2 2 3 3 3 4 4 4 5 5 6 6 6 6 6 6 6 6 6 6 6 6 6 6 6 6 6 6 6 6 6 6 5 5 6 7
11 10 10 10 10 12 11 10 9 7 6 8 7 6 6 9 16 17 14 9 9 10 10 11 12 11 4 5 6 11 12 9 8 5 5 5 4 4 5 6 6 7 6 4 1 2 2 2 1 2 3 3 4 4 4 4 4 4 5 5 5 5 6 6 6 5 6 6 6 6 6 6 6 6 6 6 5 5 5 5 5 5 6 6 6
10 10 10 11 10 8 8 9 10 10 8 8 7 8 7 8 7 12 13 11 10 9 9 9 9 9 10 8 4 5 6 6 6 6 6 5 4 3 4 3 4 5 6 3 2 0 2 2 2 2 3 3 3 4 4 4 4 4 4 5 5 6 6 6 6 5 5 5 6 6 6 6 6 6 6 6 5 5 5 5 5 5 5 5 6
10 10 10 10 9 9 8 8 8 8 9 8 8 8 8 8 9 7 7 8 9 8 9 8 7 7 8 8 8 7 8 7 7 7 6 5 5 3 3 1 2 5 6 3 1 1 2 2 2 2 2 3 3 3 4 4 4 5 5 5 5 5 5 4 3 4 5 6 5 6 5 5 5 5 5 6 6 6 5 5 5 5 5 4 5
12 10 8 9 9 9 8 8 8 7 7 6 5 6 6 7 8 8 9 7 6 6 7 6 5 5 6 7 7 8 9 8 6 6 5 5 2 1 3 0 1 4 4 2 2 1 1 2 2 2 2 2 2 3 3 4 3 3 4 4 4 4 2 1 3 4 5 5 5 5 5 5 6 6 6 5 6 6 6 6 5 5 5 5 5
10 12 17 11 8 7 7 7 7 6 6 6 6 5 6 7 8 9 9 9 9 8 7 4 1 3 2 3 5 5 6 6 5 5 4 2 0 1 4 3 4 3 5 3 2 1 1 1 1 1 1 2 2 2 3 3 3 3 3 3 2 2 3 4 5 5 4 4 5 5 6 5 5 5 5 6 6 6 7 6 6 6 6 6 5
11 9 10 11 9 7 7 7 7 6 6 5 6 7 8 8 9 9 8 9 8 8 7 7 6 5 6 7 6 6 5 3 4 4 3 2 1 2 3 3 2 2 2 2 1 2 0 1 1 1 1 1 1 1 1 2 2 3 3 3 3 3 3 3 3 3 3 4 4 4 4 5 6 5 5 5 6 6 6 7 7 7 7 6 6
10 10 9 9 10 9 8 8 7 7 7 7 6 7 8 8 8 8 8 8 8 8 7 8 7 6 5 5 7 6 4 3 3 3 3 1 1 3 4 3 1 2 2 2 2 1 1 1 0 0 0 0 1 0 1 2 2 2 3 4 4 4 5 5 5 4 3 3 4 4 4 5 4 5 5 5 5 6 6 5 6 7 7 6 5
10 10 10 11 11 10 9 8 8 10 8 7 6 7 8 8 8 8 8 8 8 8 8 8 8 8 8 7 9 7 6 4 4 3 2 1 4 5 5 3 2 2 2 2 1 1 1 1 1 0 0 0 0 1 1 1 0 1 3 2 2 4 1 2 2 1 2 3 3 3 4 4 4 4 4 5 5 5 6 6 6 5 5 6 6
9 12 16 17 13 10 9 9 9 9 9 9 9 9 9 8 8 8 8 7 8 7 7 8 8 7 7 8 8 8 8 6 6 6 6 6 5 4 3 3 3 2 1 2 2 2 1 1 1 0 0 1 1 1 1 1 0 1 1 1 1 1 2 1 3 2 3 3 3 3 3 4 4 4 4 3 4 5 5 6 6 6 5 5 6
10 9 11 14 10 10 9 9 10 10 10 10 10 9 9 8 8 8 8 7 8 7 7 7 7 7 7 9 8 8 7 6 6 5 5 5 4 4 3 3 2 2 2 2 2 2 2 2 1 1 2 1 1 1 0 1 2 2 3 1 0 1 1 2 3 3 3 3 3 3 3 3 3 3 4 4 4 4 4 4 4 5 6 5 5
9 10 11 11 10 10 9 9 9 10 10 10 9 9 9 8 8 8 8 7 8 7 7 7 6 6 7 7 7 5 5 5 5 5 5 4 5 4 4 3 3 3 3 3 2 2 1 2 2 1 1 1 1 2 2 1 1 3 2 1 1 1 1 2 2 3 2 2 3 2 2 3 3 3 3 4 1 2 2 2 3 3 4 5 6
10 11 11 10 10 9 8 8 9 10 9 9 9 9 8 8 8 8 8 8 7 7 7 7 6 6 8 12 8 3 3 3 4 5 5 5 4 4 4 3 2 1 2 3 3 2 2 2 2 1 1 1 1 1 2 3 2 2 2 2 1 1 0 2 2 2 2 3 3 3 3 4 3 2 2 4 1 3 3 4 4 4 4 4 5
10 10 11 10 9 9 10 10 9 9 8 9 9 8 8 8 8 8 8 8 7 7 7 7 7 7 7 8 7 5 5 3 4 4 4 5 4 4 4 4 4 4 3 2 2 2 2 2 2 2 2 1 1 1 2 2 2 2 2 2 1 1 1 1 1 1 1 2 2 2 3 1 0 2 2 2 2 2 3 2 3 3 3 4 4
9 10 10 10 9 8 8 9 9 8 8 9 8 8 8 8 8 8 8 9 8 8 7 7 7 7 7 7 6 6 6 5 5 5 5 4 5 4 5 4 3 3 3 3 3 3 2 3 3 2 2 2 1 0 2 0 2 2 1 2 2 1 1 1 0 1 1 2 2 1 2 2 1 0 2 2 1 1 1 3 3 4 3 3 4
9 10 10 9 9 8 8 8 9 8 8 8 8 8 8 8 8 9 9 9 8 8 7 7 7 8 8 8 8 7 7 6 6 5 5 5 5 4 4 4 4 4 3 3 3 3 3 3 2 2 3 3 2 2 2 1 1 2 1 1 1 3 2 0 0 2 1 1 1 1 0 1 1 1 1 2 1 1 2 2 2 1 1 3 2
10 10 10 10 10 9 8 8 8 9 9 8 9 9 9 9 9 9 9 8 8 8 7 7 7 8 8 8 8 8 7 7 7 6 6 6 5 6 5 5 5 5 5 4 4 4 3 3 3 3 4 3 3 3 3 2 2 2 2 1 2 1 1 0 1 1 0 1 2 1 1 0 1 3 4 3 2 2 3 2 2 2 3 1 3
9 9 10 10 10 10 9 8 8 8 8 9 9 9 9 9 9 9 9 8 8 8 7 7 7 8 8 8 8 8 8 7 7 7 7 6 6 5 5 5 5 5 5 4 4 4 4 4 3 3 3 4 4 4 3 3 3 3 3 3 1 1 2 1 1 2 1 1 1 2 2 2 1 1 4 2 1 1 1 1 2 2 2 3 3
8 8 8 9 9 9 9 9 9 9 8 9 9 9 9 9 9 9 9 8 8 8 8 7 7 7 8 8 7 8 8 8 7 7 7 7 7 6 6 6 6 6 5 5 5 4 4 4 4 4 4 4 4 5 4 4 3 3 3 3 3 0 5 3 2 2 2 1 1 1 1 2 1 0 1 0 2 1 2 0 2 1 2 2 3
8 8 8 8 8 8 8 8 8 9 9 9 9 10 9 9 9 9 9 9 8 8 8 7 7 7 8 7 7 8 8 8 8 8 7 8 7 7 7 7 7 6 6 6 6 6 5 4 4 4 4 4 5 5 5 5 4 4 4 4 6 9 4 2 5 3 5 3 3 2 2 2 1 1 1 2 2 2 2 2 2 3 3 3 3
8 8 8 8 8 7 7 7 7 8 8 9 9 9 9 9 9 9 9 8 8 9 8 8 7 8 8 8 8 8 8 8 8 8 8 8 7 7 7 8 7 7 6 6 6 6 6 6 5 5 5 4 5 5 5 5 5 5 5 4 11 9 7 4 2 3 3 4 3 3 3 2 2 2 2 2 2 2 3 3 3 3 4 4 5
8 8 8 8 8 7 7 7 7 7 8 9 9 9 9 9 9 9 9 9 9 9 9 8 8 8 8 8 8 8 8 9 8 8 8 8 8 8 8 8 8 7 7 6 6 6 5 6 6 6 6 6 5 5 5 5 6 4 8 12 10 10 9 7 4 7 5 6 4 3 3 3 3 3 3 3 3 3 2 4 5 5 5 6 5
Wind_Direction
192 198 203 214 220 217 211 199 204 199 207 215 234 248 257 260 252 268 42 72 83 83 87 89 87 77 60 54 51 45 32 11 13 12 13 4 360 356 358 354 349 346 343 342 346 339 340 337 334 336 339 328 323 321 306 305 305 295 291 286 281 279 276 282 283 288 294 296 301 306 324 333 317 324 318 329 326 251 260 281 286 284 284 283 278
191 189 193 204 212 215 226 198 193 199 208 222 231 242 242 231 234 162 111 91 97 99 98 98 89 83 77 60 45 43 26 31 17 26 15 11 9 7 5 354 351 347 343 341 338 339 337 337 333 339 338 332 327 315 322 316 307 308 301 291 285 287 291 287 284 294 298 303 311 318 316 330 317 321 315 308 301 317 301 290 287 282 281 279 273
184 183 187 193 202 205 198 199 184 196 217 228 233 232 219 193 141 142 119 115 107 110 110 99 91 83 75 62 44 39 33 26 35 30 27 19 13 4 358 350 347 343 345 343 343 342 340 335 335 338 337 335 333 331 327 327 327 317 309 304 314 318 308 302 305 305 300 305 312 311 315 328 320 316 321 322 325 313 303 292 283 284 275 275 270
177 181 188 195 196 192 191 191 196 207 217 226 221 226 171 129 113 111 119 122 115 101 97 96 93 91 81 69 57 49 44 38 34 32 27 20 8 356 357 348 351 348 346 347 345 343 341 339 342 342 344 342 338 337 342 341 329 326 326 339 323 322 322 317 312 307 305 302 307 311 318 314 316 316 324 316 303 299 301 296 288 287 292 273 260
176 181 189 193 188 187 190 193 200 209 215 197 205 158 118 112 115 120 122 116 114 113 107 108 102 84 65 65 63 54 50 43 32 30 21 13 2 359 358 353 351 348 352 351 350 347 345 345 342 344 347 342 342 343 350 343 337 339 337 339 337 332 325 313 308 303 300 305 311 312 320 323 321 319 321 311 304 305 309 304 302 303 298 296 284
179 179 184 187 188 191 187 191 196 195 199 171 163 124 119 117 118 113 112 112 110 106 104 91 80 73 64 63 68 63 52 41 35 26 19 9 2 7 2 355 359 355 359 355 353 354 347 345 349 350 348 343 341 344 350 347 338 344 341 339 335 327 316 304 298 304 307 318 318 324 334 326 325 316 324 309 309 311 309 311 302 266 284 335 359
173 175 181 185 184 189 183 181 181 181 170 155 131 123 120 121 119 118 116 112 110 104 100 92 78 80 76 68 64 59 52 39 31 19 15 11 6 8 4 6 5 3 8 2 359 355 352 350 353 356 351 351 355 358 351 345 337 338 347 338 332 332 329 328 326 306 319 322 326 314 306 311 314 314 315 306 283 294 312 330 302 328 326 18 51
172 176 177 183 181 180 176 172 170 161 144 129 124 122 120 118 116 114 114 112 108 108 104 99 97 86 80 78 71 63 50 42 27 10 7 11 8 11 15 12 8 11 7 2 359 353 354 355 3 11 357 357 2 0 357 350 352 349 356 342 332 331 326 340 325 322 328 329 308 334 332 328 275 277 294 287 323 319 302 330 312 323 301 73 19
173 176 178 180 176 171 167 163 151 136 130 126 123 123 120 117 116 115 113 113 110 106 100 96 95 92 85 80 74 59 53 43 28 9 358 11 20 20 19 18 20 16 3 4 3 359 4 349 23 12 358 353 6 14 9 2 353 356 4 351 349 349 346 8 320 357 340 302 325 331 286 304 337 329 312 347 334 353 356 331 301 288 282 93 69
172 178 179 177 167 163 157 145 138 133 130 128 126 125 123 120 116 112 108 105 106 105 105 103 99 98 93 83 75 64 57 52 22 12 1 352 6 27 23 27 27 19 8 2 4 9 22 9 18 9 354 5 10 17 16 12 9 8 356 355 352 352 355 358 352 1 349 328 351 324 5 14 352 17 6 3 356 333 2 341 342 11 16 33 44
177 178 177 170 162 153 146 140 136 134 132 129 129 127 124 122 117 114 113 113 112 112 113 110 104 96 92 89 80 72 60 43 12 9 359 346 337 31 33 37 30 23 20 11 7 16 23 23 1 354 1 8 11 4 28 20 10 5 355 358 357 353 343 346 337 346 339 334 4 332 53 29 356 21 354 4 340 356 3 353 4 10 320 129 157
177 178 172 164 155 149 143 139 136 133 133 131 131 128 126 123 122 121 122 122 119 119 115 111 108 103 96 91 81 75 70 39 1 6 0 340 332 333 41 33 29 28 19 17 16 17 18 17 9 357 9 6 353 7 26 19 8 4 5 14 22 14 6 347 341 338 350 5 27 9 24 24 25 14 6 8 19 2 356 2 21 23 20 43 62
175 173 168 158 151 145 141 139 136 137 136 133 132 130 129 127 126 126 125 123 123 122 120 116 111 105 100 96 89 81 81 44 356 3 352 331 324 315 45 30 33 31 20 21 20 17 18 9 14 12 11 7 359 13 13 2 16 28 39 41 44 50 43 25 16 2 19 36 35 37 31 24 24 25 18 4 357 10 6 34 31 65 64 64 57
173 168 161 154 148 144 143 140 139 138 137 135 134 133 132 131 128 125 126 129 129 127 121 115 114 110 103 98 91 90 90 41 346 353 342 326 310 303 45 34 38 32 24 23 23 25 24 18 11 19 19 24 25 3 352 355 9 23 41 41 43 42 38 30 22 22 34 33 38 36 29 28 20 11 10 356 8 20 7 32 35 47 48 57 67
170 162 156 151 147 146 144 142 139 139 139 137 136 135 132 128 130 132 135 135 135 132 128 124 121 119 119 112 106 102 84 15 340 341 339 318 310 296 51 40 45 41 31 30 29 31 35 31 23 21 28 30 20 353 333 342 359 24 33 35 36 42 41 30 22 26 34 35 37 41 35 30 25 17 11 12 10 8 15 18 25 44 61 11 76
165 159 155 154 152 149 145 142 140 142 141 140 138 135 134 135 137 138 136 135 132 131 130 129 126 122 118 117 114 107 90 24 343 338 333 317 303 347 56 56 53 51 43 42 41 39 38 33 32 42 20 14 13 345 327 312 342 358 25 36 42 57 64 68 49 40 43 45 48 49 50 44 38 37 30 20 15 18 340 11 39 13 92 87 69
164 160 157 155 152 150 146 142 143 144 143 141 139 138 138 140 139 144 140 140 141 139 140 136 131 127 122 120 121 113 102 31 356 342 332 325 311 70 65 65 63 60 57 54 52 50 34 22 34 19 20 19 4 336 320 315 29 11 41 57 68 62 72 105 93 73 67 79 70 66 60 63 61 50 39 29 16 10 26 44 30 6 43 67 75
162 159 156 154 149 148 146 144 144 145 145 143 141 139 139 140 144 150 146 145 144 143 141 135 131 127 123 121 120 119 99 46 21 357 339 343 313 61 82 78 77 73 71 67 65 67 46 25 13 28 26 18 356 344 340 340 34 26 30 45 48 51 47 62 91 94 125 123 113 93 68 53 82 68 54 42 30 27 36 36 17 14 77 66 65
164 160 153 147 144 145 146 145 144 144 143 142 141 141 144 145 146 148 145 143 140 144 141 133 127 117 103 95 72 105 106 81 43 7 349 345 339 75 71 86 84 81 84 74 72 67 68 52 33 21 17 4 358 360 355 358 54 44 60 70 67 63 60 41 53 55 44 50 51 49 52 49 46 37 46 48 40 37 36 31 20 26 36 60 87
157 147 144 143 141 144 147 144 143 142 140 138 139 139 140 142 148 148 146 145 147 141 139 128 123 111 99 95 90 105 104 68 43 9 2 353 348 2 85 85 82 81 71 77 72 61 56 59 46 17 355 3 4 2 2 354 40 57 59 60 62 64 60 59 52 52 53 46 53 53 52 46 43 45 39 38 38 39 38 34 32 24 26 35 49
144 142 142 143 148 152 144 142 139 136 136 136 136 137 142 145 145 146 146 144 139 135 128 122 113 108 98 96 112 94 71 90 59 24 18 11 2 353 81 69 80 78 80 69 59 56 48 43 47 15 356 8 10 9 9 9 26 56 53 60 52 51 68 69 64 64 61 60 56 51 50 51 49 47 47 46 43 38 40 39 38 40 41 35 45
140 137 139 142 151 156 141 136 132 131 134 135 135 135 138 140 142 143 141 139 137 130 128 125 117 106 105 113 118 114 71 60 86 56 31 25 22 7 42 55 12 76 67 65 61 53 45 45 45 360 353 19 22 18 11 23 33 66 35 6 24 50 70 77 71 66 64 60 56 51 51 53 57 55 54 52 49 48 46 48 46 47 45 46 43
133 132 136 150 155 150 133 130 129 133 134 134 132 132 135 138 138 137 139 139 136 133 127 124 122 120 123 129 125 122 115 88 53 74 53 30 29 35 14 16 329 47 70 73 58 55 54 59 66 7 354 26 32 26 16 21 65 26 5 25 301 94 67 65 67 64 57 53 51 51 48 54 57 58 56 56 54 56 58 56 57 56 58 57 54
133 135 140 149 155 145 132 133 132 131 131 128 127 131 135 136 135 140 144 142 139 134 131 133 135 135 137 130 135 130 121 110 80 63 66 41 41 37 30 21 10 47 65 70 60 51 54 58 33 323 346 349 20 39 35 22 28 10 360 29 65 66 75 72 60 59 62 61 57 53 51 48 50 52 54 54 56 60 61 59 60 59 56 57 59
141 144 151 158 156 140 137 135 133 130 130 133 134 137 134 136 136 144 146 141 140 138 141 145 143 144 139 139 139 138 130 123 115 91 87 86 55 44 41 38 24 357 81 71 71 66 19 313 294 313 323 295 267 223 55 32 12 19 35 59 68 68 61 59 61 62 61 61 61 62 62 57 54 54 55 61 66 68 72 74 70 67 69 67 60
150 157 162 160 146 138 134 130 128 131 134 137 135 135 137 138 141 147 144 141 143 145 151 149 152 147 149 147 142 138 135 133 128 130 146 129 103 69 54 59 75 65 72 77 70 71 286 268 273 265 9 352 63 53 47 35 15 58 47 55 62 57 55 60 59 58 61 62 62 62 61 60 59 59 57 56 59 60 62 66 69 69 68 68 65
162 167 161 146 138 136 133 135 132 127 122 126 136 140 137 135 139 145 148 149 150 157 156 158 157 154 156 149 143 139 141 139 137 143 141 147 141 148 146 130 147 163 143 144 181 185 200 263 55 354 345 315 275 272 41 64 77 67 66 61 60 61 59 53 53 57 57 57 58 58 57 64 71 68 64 62 60 55 52 54 62 69 68 65 71
161 158 145 128 138 142 140 133 133 136 135 134 142 151 144 138 141 146 155 155 161 161 161 163 164 161 157 154 148 146 144 148 151 148 155 147 145 144 138 142 114 86 101 104 96 109 151 207 222 231 222 225 167 66 53 52 49 55 60 65 66 73 82 76 63 56 51 48 54 58 61 59 61 62 61 56 57 56 51 48 49 54 58 65 70
139 131 121 109 98 91 104 114 113 123 129 127 90 271 152 142 136 135 113 150 163 163 164 158 165 163 161 154 157 159 161 148 101 33 39 22 5 355 75 89 100 111 48 13 334 118 113 102 88 112 32 83 76 60 77 74 68 57 45 45 55 55 51 54 59 49 42 49 47 45 54 53 55 63 67 62 53 53 40 51 43 52 63 59 60
135 126 125 121 115 104 105 111 108 117 129 122 99 47 31 49 69 126 120 59 43 35 41 127 120 173 145 82 32 198 147 93 86 85 68 64 56 28 1 1 354 16 13 333 298 96 61 30 339 32 51 52 47 49 47 54 63 67 69 59 51 43 46 48 48 54 54 49 49 50 45 49 52 49 53 59 63 60 52 46 43 34 49 60 59
138 139 138 137 136 145 145 138 133 132 143 131 137 125 105 54 49 59 68 67 55 51 52 52 44 23 33 137 77 58 77 90 93 99 104 86 64 45 38 9 4 340 349 341 213 128 177 153 101 69 46 47 46 50 44 44 38 57 64 57 54 54 53 42 27 49 51 57 54 50 50 46 48 45 48 42 45 49 50 46 50 50 51 47 54
139 138 136 136 133 136 140 141 146 147 148 145 152 152 131 115 74 47 58 61 61 62 61 55 47 52 42 51 107 113 82 92 107 106 101 95 98 85 62 41 356 342 327 280 272 111 89 83 71 54 52 56 62 51 44 48 40 41 49 58 53 48 44 45 2 28 52 57 55 53 47 47 52 46 46 45 42 42 36 40 37 36 51 62 52
128 130 137 137 138 135 141 143 144 146 147 154 164 158 149 139 123 116 62 54 68 72 63 51 53 51 56 50 44 88 114 121 120 110 107 112 107 103 121 131 317 294 316 280 119 76 77 84 90 82 60 67 46 49 53 43 44 47 41 44 55 51 51 30 354 58 48 39 43 46 49 52 51 59 53 49 42 49 40 39 37 38 33 47 64
123 118 134 143 141 141 143 144 146 145 145 162 164 156 148 134 133 130 135 137 115 76 66 57 62 78 66 56 78 98 114 127 128 124 129 114 108 83 327 125 313 266 239 270 123 196 122 91 58 63 65 47 49 61 54 54 48 42 53 56 62 58 22 339 42 36 46 42 46 48 44 47 45 42 47 46 48 46 45 46 39 37 40 35 38
118 116 117 122 124 132 138 138 134 124 140 157 161 152 135 141 145 152 158 158 156 156 163 146 159 350 38 122 78 93 113 128 139 144 134 144 147 347 308 228 189 204 217 207 174 232 93 84 89 64 66 76 48 30 58 36 35 36 45 53 61 73 60 44 37 15 25 51 43 41 29 22 39 53 44 44 41 46 45 41 43 33 38 36 34
130 129 128 124 129 137 136 139 138 146 155 155 159 148 152 158 161 163 161 159 157 159 163 163 158 127 94 66 95 94 107 124 149 161 155 148 108 350 240 214 209 172 157 151 152 88 51 49 72 114 77 94 70 60 35 69 50 41 10 24 43 40 42 57 48 50 27 43 50 21 25 40 17 19 52 44 48 43 47 49 44 37 31 32 30
140 136 137 139 143 148 149 139 151 155 147 155 162 162 162 167 165 162 160 162 163 164 161 149 150 146 184 154 123 100 111 120 162 162 183 201 285 272 258 265 236 162 196 161 152 157 153 133 20 55 34 28 108 110 91 77 84 89 41 23 16 19 43 27 21 5 8 48 34 26 23 34 29 29 31 45 42 40 37 46 66 55 39 10 10
151 145 145 148 149 155 155 156 152 140 142 149 165 175 172 167 165 163 165 167 168 167 158 165 171 171 173 163 164 169 135 133 126 128 149 150 210 228 234 229 204 202 190 155 159 163 158 155 204 305 321 281 296 257 148 119 61 98 116 122 104 62 290 153 77 27 20 15 34 34 23 33 23 27 46 51 36 45 44 30 26 47 56 33 25
154 148 149 149 154 156 154 151 150 156 162 170 177 181 175 168 164 168 172 168 172 174 170 169 183 176 168 151 163 141 143 177 190 190 183 192 199 202 200 184 189 198 180 156 145 203 163 156 95 164 160 338 100 233 230 151 131 40 2 267 138 166 204 55 64 348 20 30 41 27 28 20 35 35 14 50 58 41 42 40 30 26 30 41 34
149 147 147 148 152 157 162 160 164 173 177 182 178 179 170 170 168 172 175 173 180 182 179 177 184 176 157 154 162 164 187 182 190 184 183 182 184 175 183 178 173 167 172 183 169 159 176 133 129 141 132 207 174 211 213 192 189 152 211 269 81 108 62 29 24 24 29 23 27 29 29 26 24 38 43 23 39 50 30 38 43 36 22 17 39
148 147 149 160 158 158 162 165 174 183 179 182 174 176 172 171 173 176 180 180 182 186 185 183 181 170 162 132 110 153 192 182 180 180 179 187 177 171 180 176 166 173 186 156 174 168 188 113 137 132 141 148 171 184 196 211 190 201 192 168 217 55 75 66 20 33 34 23 22 30 46 36 19 8 71 79 331 326 51 19 40 30 52 40 19
143 143 152 159 156 157 154 173 179 180 179 178 176 178 169 173 175 181 184 188 186 188 187 185 177 159 110 118 124 132 227 193 177 179 179 182 181 168 173 172 173 182 225 166 156 178 160 157 181 172 140 167 175 191 195 194 206 207 187 210 159 215 200 89 68 36 3 42 39 23 40 45 21 51 56 315 9 35 28 26 37 36 25 40 50
144 148 154 156 164 167 167 173 167 171 179 181 179 177 172 174 178 182 186 193 191 190 191 183 175 153 142 134 125 153 220 216 181 178 182 173 178 160 171 182 181 176 207 204 167 166 176 182 175 183 168 147 205 212 211 192 215 232 190 196 208 178 203 100 139 151 97 67 63 46 357 36 49 24 28 349 38 43 59 24 16 15 40 28 41
151 153 155 158 163 173 174 155 161 177 186 182 177 176 179 181 183 187 188 189 194 194 193 186 177 164 154 139 148 184 203 209 192 187 176 177 168 176 179 176 177 168 180 188 192 183 195 189 181 164 150 193 165 244 278 252 220 257 250 200 198 242 251 146 92 44 9 34 55 32 102 76 344 246 95 342 357 45 54 51 42 32 7 37 27
147 151 151 155 161 168 167 170 164 168 177 173 182 180 183 189 188 189 190 187 191 195 194 189 178 173 168 170 183 189 196 203 194 189 177 183 171 182 188 165 161 182 199 183 171 171 198 198 193 168 176 195 164 197 205 219 261 255 250 259 236 189 220 96 28 35 25 318 328 101 32 269 168 95 45 84 15 344 65 46 55 1 330 23 4
159 160 159 162 164 168 170 171 171 171 175 180 181 183 185 192 194 189 188 188 185 192 193 188 185 180 182 177 183 190 195 198 192 190 186 189 186 183 187 180 177 174 191 183 163 183 192 195 187 190 183 195 181 197 184 182 219 228 267 260 288 342 33 49 18 244 214 300 322 341 91 98 5 39 18 332 36 10 30 25 354 26 358 355 28
160 167 167 167 167 168 170 166 173 177 180 182 186 187 187 189 189 184 187 187 181 187 192 189 189 184 189 185 187 187 192 196 197 188 190 191 189 187 180 181 176 191 179 181 178 178 171 194 198 191 198 192 185 195 214 184 195 199 203 223 232 246 223 223 206 247 233 272 296 297 343 342 74 165 165 232 250 123 311 338 29 347 339 347 324
163 167 170 167 167 167 168 171 174 174 184 186 189 188 185 185 182 182 181 180 183 187 196 191 192 187 189 189 189 189 192 196 196 197 184 187 187 193 187 181 188 192 191 181 185 192 186 180 181 191 190 195 200 196 200 203 202 197 204 203 212 42 50 32 237 235 260 269 262 283 243 269 320 335 2 330 302 6 286 280 254 273 315 290 320
167 169 167 168 170 168 167 172 172 178 185 184 182 186 182 183 183 183 182 183 187 193 199 195 193 189 189 191 190 192 192 196 195 195 192 188 188 188 184 189 191 196 191 188 186 187 190 196 186 195 192 191 196 208 200 205 198 201 194 214 109 109 129 342 314 41 9 303 256 257 266 254 242 255 303 281 273 263 267 302 296 306 284 288 286
170 167 167 165 166 172 169 177 176 186 186 183 181 185 182 184 183 185 186 188 191 194 201 201 195 191 191 190 192 195 192 196 197 196 194 193 188 189 186 183 187 189 196 189 191 182 191 193 192 201 199 206 195 202 209 203 206 193 209 141 124 145 151 163 329 3 287 245 258 247 269 273 281 269 254 250 259 257 268 268 288 284 282 287 285
166 167 165 169 172 175 176 187 189 191 186 188 186 187 186 187 189 188 192 194 199 197 198 199 196 194 196 194 192 196 195 197 198 197 196 194 191 190 190 183 187 191 194 186 190 186 191 194 198 194 202 198 206 199 211 201 208 197 109 122 148 156 160 179 201 199 242 307 284 257 237 244 261 266 257 245 246 255 279 311 299 295 292 293 299